DW7413 Weather Reports


Display with metric or nautical units.
time (UTC)temp
F
wind
direction
speed
MPH
gust
MPH
rain 1hr
in
rain 24hr
in
rain mn
in
humidity
%
barometer
mb
20180521104505 48 165 0.0 0.0 0.00 0.00 0.00 87 1009.4
20180521103505 48 165 0.0 0.0 0.00 0.00 0.00 87 1009.5
20180521102505 48 165 0.0 0.0 0.00 0.00 0.00 87 1009.7
20180521101513 48 165 0.0 0.0 0.00 0.00 0.00 87 1009.8
20180521100504 48 165 0.0 0.0 0.00 0.00 0.00 87 1009.8
20180521095505 48 165 0.0 0.0 0.00 0.00 0.00 86 1009.7
20180521094505 48 165 0.0 0.0 0.00 0.00 0.00 86 1009.6
20180521093505 48 165 0.0 0.0 0.00 0.00 0.00 86 1009.7
20180521092505 48 165 0.0 0.0 0.00 0.00 0.00 85 1009.8
20180521091505 48 165 0.0 0.0 0.00 0.00 0.00 85 1009.8
20180521090505 48 165 0.0 0.0 0.00 0.00 0.00 85 1009.8
20180521085504 48 165 0.0 0.0 0.00 0.00 0.00 85 1010.0
20180521084505 48 165 0.0 0.0 0.00 0.00 0.00 85 1009.9
20180521083505 49 165 0.0 1.0 0.00 0.00 0.00 85 1009.9
20180521082505 49 165 0.0 1.0 0.00 0.00 0.00 84 1010.0
20180521081505 49 165 0.0 0.0 0.00 0.00 0.00 84 1010.1
20180521080505 49 165 0.0 0.0 0.00 0.00 0.00 83 1010.3
20180521075505 50 165 0.0 0.0 0.00 0.00 0.00 82 1010.3
20180521074505 50 165 0.0 0.0 0.00 0.00 0.00 81 1010.6
20180521073505 50 165 0.0 0.0 0.00 0.00 0.00 81 1010.8
20180521072505 50 165 0.0 0.0 0.00 0.00 0.00 82 1010.8
20180521071505 50 165 0.0 1.0 0.00 0.00 0.00 82 1010.6
20180521070505 51 169 0.0 0.0 0.00 0.00 0.00 81 1010.6
20180521065505 51 169 0.0 0.0 0.00 0.00 0.00 81 1010.6
20180521064505 51 170 0.0 1.0 0.00 0.00 0.00 80 1010.6
20180521063505 51 172 0.0 3.0 0.00 0.00 0.00 80 1010.8
20180521062505 52 162 4.0 4.0 0.00 0.00 0.00 79 1010.7
20180521061505 52 100 0.0 3.0 0.00 0.00 0.00 78 1010.8
20180521060505 52 98 0.0 3.0 0.00 0.00 0.00 78 1010.8
20180521055505 52 111 0.0 3.0 0.00 0.00 0.00 77 1010.9
20180521054505 53 187 1.0 3.0 0.00 0.00 0.00 76 1010.9
20180521053505 53 155 2.0 3.0 0.00 0.00 0.00 76 1011.0
20180521052505 54 135 1.0 4.0 0.00 0.00 0.00 76 1011.0
20180521051505 54 161 1.0 3.0 0.00 0.00 0.00 75 1011.0
20180521050505 54 194 0.0 4.0 0.00 0.00 0.00 74 1011.1
20180521045505 55 155 0.0 4.0 0.00 0.00 0.00 73 1011.0
20180521044505 55 145 2.0 5.0 0.00 0.00 0.00 73 1010.9
20180521043505 56 158 0.0 4.0 0.00 0.00 0.00 72 1010.9
20180521042505 56 117 2.0 6.0 0.00 0.00 0.00 72 1010.8
20180521041505 56 178 6.0 6.0 0.00 0.00 0.00 71 1010.7
20180521040505 57 161 2.0 5.0 0.00 0.00 0.00 70 1010.5
20180521035505 57 180 1.0 5.0 0.00 0.00 0.00 69 1010.5
20180521034505 58 165 2.0 5.0 0.00 0.00 0.00 69 1010.5
20180521033505 58 164 2.0 5.0 0.00 0.00 0.00 68 1010.4
20180521032505 59 188 3.0 8.0 0.00 0.00 0.00 67 1010.4
20180521031505 60 148 2.0 5.0 0.00 0.00 0.00 66 1010.4
20180521030505 61 201 2.0 6.0 0.00 0.00 0.00 64 1010.3
20180521025505 61 184 2.0 7.0 0.00 0.00 0.00 63 1010.2
20180521024505 62 158 3.0 7.0 0.00 0.00 0.00 62 1010.2
20180521023505 63 151 2.0 6.0 0.00 0.00 0.00 61 1010.1
20180521022505 64 174 7.0 8.0 0.00 0.00 0.00 59 1010.1
20180521021505 65 192 1.0 8.0 0.00 0.00 0.00 58 1010.1
20180521020505 66 165 0.0 5.0 0.00 0.00 0.00 57 1010.1
20180521015505 66 145 1.0 5.0 0.00 0.00 0.00 56 1010.1
20180521014505 67 167 0.0 5.0 0.00 0.00 0.00 55 1010.1
20180521013505 67 147 0.0 6.0 0.00 0.00 0.00 55 1010.2
20180521012505 67 123 2.0 7.0 0.00 0.00 0.00 54 1010.3
20180521011505 68 159 1.0 4.0 0.00 0.00 0.00 53 1010.3
20180521010505 68 202 0.0 8.0 0.00 0.00 0.00 53 1010.4
20180521005505 69 160 1.0 5.0 0.00 0.00 0.00 52 1010.4
20180521004505 69 159 4.0 6.0 0.00 0.00 0.00 52 1010.5
20180521003505 69 138 2.0 6.0 0.00 0.00 0.00 50 1010.5
20180521002505 69 202 2.0 6.0 0.00 0.00 0.00 50 1010.5
20180521001505 69 188 2.0 6.0 0.00 0.00 0.00 51 1010.5
20180521000505 70 170 2.0 6.0 0.00 0.00 0.00 51 1010.5
20180520235505 70 178 3.0 10.0 0.00 0.00 0.00 50 1010.6
20180520234505 70 12 0.0 8.0 0.00 0.00 0.00 50 1010.7
20180520233505 69 11 3.0 6.0 0.00 0.00 0.00 50 1010.8
20180520232505 69 11 2.0 6.0 0.00 0.00 0.00 50 1010.8
20180520231505 70 11 3.0 8.0 0.00 0.00 0.00 50 1010.8
20180520230505 70 11 1.0 10.0 0.00 0.00 0.00 51 1010.9
20180520225505 70 10 4.0 6.0 0.00 0.00 0.00 50 1011.1
20180520224505 70 11 1.0 8.0 0.00 0.00 0.00 50 1011.2
20180520223505 69 11 4.0 6.0 0.00 0.00 0.00 50 1011.2
20180520222505 69 12 3.0 6.0 0.00 0.00 0.00 49 1011.3
20180520221505 69 11 7.0 9.0 0.00 0.00 0.00 50 1011.4
20180520220505 69 11 3.0 9.0 0.00 0.00 0.00 51 1011.3
20180520215505 69 11 2.0 10.0 0.00 0.00 0.00 51 1011.4
20180520214505 68 9 3.0 9.0 0.00 0.00 0.00 51 1011.6
20180520213505 68 12 7.0 10.0 0.00 0.00 0.00 51 1011.6
20180520212505 68 11 0.0 9.0 0.00 0.00 0.00 52 1011.6
20180520211505 68 11 3.0 8.0 0.00 0.00 0.00 52 1011.7
20180520210505 66 11 2.0 8.0 0.00 0.00 0.00 55 1011.9
20180520205505 66 13 2.0 9.0 0.00 0.00 0.00 55 1012.1
20180520204505 66 11 4.0 9.0 0.00 0.00 0.00 55 1012.2
20180520203505 67 11 7.0 8.0 0.00 0.00 0.00 55 1012.2
20180520202505 66 11 4.0 8.0 0.00 0.00 0.00 55 1012.3
20180520201505 66 11 2.0 9.0 0.00 0.00 0.00 55 1012.3
20180520200505 65 11 2.0 9.0 0.00 0.00 0.00 56 1012.4
20180520195505 65 12 7.0 9.0 0.00 0.00 0.00 56 1012.4
20180520194505 65 12 3.0 9.0 0.00 0.00 0.00 56 1012.7
20180520193505 64 11 3.0 8.0 0.00 0.00 0.00 59 1012.7
20180520192505 64 11 1.0 9.0 0.00 0.00 0.00 59 1012.8
20180520191505 63 11 3.0 6.0 0.00 0.00 0.00 61 1012.9
20180520190505 61 11 2.0 8.0 0.00 0.00 0.00 64 1012.9
20180520185505 60 11 1.0 6.0 0.00 0.00 0.00 64 1013.0
20180520184506 61 11 2.0 8.0 0.00 0.00 0.00 63 1013.0
20180520183505 61 11 5.0 8.0 0.00 0.00 0.00 64 1013.1
20180520182505 60 11 2.0 5.0 0.00 0.00 0.00 67 1013.1
20180520181505 59 12 2.0 9.0 0.00 0.00 0.00 68 1013.2
20180520180505 58 11 1.0 5.0 0.00 0.00 0.00 69 1013.3
20180520175505 57 11 1.0 6.0 0.00 0.00 0.00 72 1013.3
20180520174505 56 11 3.0 5.0 0.00 0.00 0.00 75 1013.4
20180520173505 55 11 1.0 8.0 0.00 0.00 0.00 78 1013.4
20180520172506 54 11 2.0 5.0 0.00 0.00 0.00 79 1013.4
20180520171505 53 11 4.0 6.0 0.00 0.00 0.00 80 1013.3
20180520170505 53 12 4.0 6.0 0.00 0.00 0.00 81 1013.3
20180520165505 52 11 3.0 5.0 0.00 0.00 0.00 82 1013.3
20180520164505 52 11 2.0 5.0 0.00 0.00 0.00 83 1013.4
20180520163505 52 12 1.0 4.0 0.00 0.00 0.00 84 1013.4
20180520162505 51 10 0.0 5.0 0.00 0.00 0.00 84 1013.4
20180520161505 51 11 2.0 4.0 0.00 0.00 0.00 85 1013.4
20180520160505 50 11 2.0 4.0 0.00 0.00 0.00 85 1013.4
20180520155505 50 11 0.0 6.0 0.00 0.00 0.00 87 1013.3
20180520154505 49 11 1.0 8.0 0.00 0.00 0.00 87 1013.2
20180520153505 49 200 7.0 7.0 0.00 0.00 0.00 88 1013.2
20180520152506 49 177 1.0 5.0 0.00 0.00 0.00 88 1013.0
20180520151505 49 180 3.0 7.0 0.00 0.00 0.00 88 1013.0
20180520150505 48 163 1.0 5.0 0.00 0.00 0.00 89 1012.9
20180520145505 48 186 0.0 7.0 0.00 0.00 0.00 90 1012.9
20180520144505 48 114 4.0 7.0 0.00 0.00 0.00 90 1012.8
20180520143505 48 132 2.0 6.0 0.00 0.00 0.00 90 1012.8
20180520142505 47 175 4.0 5.0 0.00 0.00 0.00 91 1012.6
20180520141505 47 175 0.0 5.0 0.00 0.00 0.00 91 1012.5
20180520140505 46 167 3.0 4.0 0.00 0.00 0.00 91 1012.5
20180520135505 46 169 0.0 5.0 0.00 0.00 0.00 91 1012.5
20180520134505 46 146 2.0 4.0 0.00 0.00 0.00 91 1012.5
20180520133506 46 157 0.0 3.0 0.00 0.00 0.00 91 1012.5
20180520132505 46 154 0.0 3.0 0.00 0.00 0.00 90 1012.5
20180520131505 46 145 1.0 3.0 0.00 0.00 0.00 90 1012.3
20180520130505 46 177 0.0 2.0 0.00 0.00 0.00 90 1012.2
20180520125505 46 100 0.0 0.0 0.00 0.00 0.00 89 1012.3
20180520124505 46 157 0.0 2.0 0.00 0.00 0.00 89 1012.1
20180520123505 46 188 1.0 2.0 0.00 0.00 0.00 89 1011.9
20180520122505 46 179 0.0 3.0 0.00 0.00 0.00 89 1012.0
20180520121505 46 142 0.0 3.0 0.00 0.00 0.00 89 1011.9
20180520120505 46 172 1.0 5.0 0.00 0.00 0.00 88 1011.9
20180520115505 46 195 0.0 4.0 0.00 0.00 0.00 88 1011.9
20180520114505 47 185 0.0 4.0 0.00 0.00 0.00 87 1012.0
20180520113505 47 166 0.0 2.0 0.00 0.00 0.00 87 1012.0
20180520112505 47 161 0.0 4.0 0.00 0.00 0.00 86 1012.0
20180520111505 48 160 0.0 7.0 0.00 0.00 0.00 86 1011.8
20180520110505 48 120 2.0 4.0 0.00 0.00 0.00 85 1011.8
20180520105505 48 111 0.0 3.0 0.00 0.00 0.00 85 1011.7